TimeEST,TemperatureF,Dew PointF,Humidity,Sea Level PressureIn,VisibilityMPH,Wind Direction,Wind SpeedMPH,Gust SpeedMPH,PrecipitationIn,Events,Conditions,WindDirDegrees,DateUTC
12:15 AM,9.3,4.8,82,29.97,2.0,NNW,9.2,17.3,N/A,Snow,Light Snow,330,2014-01-23 05:15:00
12:35 AM,9.3,4.6,81,29.98,2.5,NW,9.2,-,N/A,Snow,Light Snow,310,2014-01-23 05:35:00
12:54 AM,9.3,3.4,77,29.99,5.0,NW,6.9,-,N/A,Snow,Light Snow,320,2014-01-23 05:54:00
1:15 AM,9.3,2.3,73,29.99,7.0,NW,8.1,-,N/A,Snow,Light Snow,320,2014-01-23 06:15:00
1:35 AM,9.5,3.2,76,30.00,7.0,NW,9.2,-,N/A,Snow,Light Snow,310,2014-01-23 06:35:00
1:54 AM,10.4,4.1,76,30.01,10.0,NW,6.9,-,N/A,,Overcast,320,2014-01-23 06:54:00
2:15 AM,10.4,3.7,74,30.01,10.0,NW,5.8,-,N/A,,Overcast,320,2014-01-23 07:15:00
2:35 AM,11.8,4.6,73,30.02,7.0,NW,8.1,-,N/A,Snow,Light Snow,310,2014-01-23 07:35:00
2:54 AM,10.8,3.6,73,30.03,7.0,NW,4.6,-,N/A,Snow,Light Snow,310,2014-01-23 07:54:00
3:15 AM,11.8,5.9,77,30.04,5.0,NW,4.6,-,N/A,Snow,Light Snow,310,2014-01-23 08:15:00
3:35 AM,10.0,3.2,74,30.04,10.0,NW,3.5,-,N/A,,Scattered Clouds,310,2014-01-23 08:35:00
3:55 AM,6.8,2.1,81,30.05,10.0,NW,3.5,-,N/A,,Clear,320,2014-01-23 08:55:00
4:15 AM,1.2,-2.6,84,30.06,10.0,Calm,Calm,-,N/A,,Clear,0,2014-01-23 09:15:00
4:35 AM,-0.4,-3.6,86,30.07,10.0,Calm,Calm,-,N/A,,Clear,0,2014-01-23 09:35:00
4:55 AM,-0.6,-4.7,83,30.08,10.0,Calm,Calm,-,N/A,,Clear,0,2014-01-23 09:55:00
5:15 AM,-4.0,-8.0,83,30.10,10.0,Calm,Calm,-,N/A,,Clear,0,2014-01-23 10:15:00
5:35 AM,-6.0,-10.1,82,30.12,10.0,NNE,3.5,-,N/A,,Scattered Clouds,30,2014-01-23 10:35:00
5:55 AM,3.6,0.5,87,30.14,10.0,NE,3.5,-,N/A,,Scattered Clouds,40,2014-01-23 10:55:00
6:15 AM,4.1,1.2,88,30.15,10.0,NE,3.5,-,N/A,,Scattered Clouds,40,2014-01-23 11:15:00
6:35 AM,5.0,2.1,88,30.17,10.0,NE,3.5,-,N/A,,Overcast,40,2014-01-23 11:35:00
6:55 AM,5.5,2.3,86,30.20,10.0,NE,4.6,-,N/A,,Overcast,50,2014-01-23 11:55:00
7:15 AM,5.9,2.8,87,30.21,10.0,NE,4.6,-,N/A,,Scattered Clouds,40,2014-01-23 12:15:00
7:35 AM,5.5,2.1,86,30.23,10.0,NE,5.8,-,N/A,,Clear,40,2014-01-23 12:35:00
7:55 AM,5.4,1.2,83,30.25,10.0,NNE,3.5,-,N/A,,Clear,30,2014-01-23 12:55:00
8:15 AM,5.2,1.0,83,30.27,10.0,NNE,4.6,-,N/A,,Clear,20,2014-01-23 13:15:00
8:35 AM,5.5,1.4,83,30.28,10.0,NNE,3.5,-,N/A,,Clear,30,2014-01-23 13:35:00
8:55 AM,4.6,0.5,83,30.29,10.0,Calm,Calm,-,N/A,,Clear,0,2014-01-23 13:55:00
9:15 AM,6.8,2.3,82,30.31,10.0,NE,4.6,-,N/A,,Clear,40,2014-01-23 14:15:00
9:35 AM,6.8,1.9,80,30.32,10.0,ENE,6.9,-,N/A,,Clear,60,2014-01-23 14:35:00
9:55 AM,9.3,3.7,78,30.33,10.0,ENE,5.8,-,N/A,Snow,Light Snow,60,2014-01-23 14:55:00
10:15 AM,9.3,3.0,76,30.35,10.0,NE,8.1,-,N/A,,Clear,50,2014-01-23 15:15:00
10:35 AM,9.3,2.3,73,30.36,10.0,NE,9.2,-,N/A,,Clear,40,2014-01-23 15:35:00
10:55 AM,10.4,2.8,72,30.37,10.0,ENE,9.2,-,N/A,,Clear,60,2014-01-23 15:55:00
11:15 AM,11.8,3.2,68,30.38,10.0,NE,8.1,-,N/A,,Clear,50,2014-01-23 16:15:00
11:35 AM,11.8,2.8,67,30.38,10.0,ENE,9.2,-,N/A,,Clear,60,2014-01-23 16:35:00
11:55 AM,14.0,4.1,65,30.39,10.0,NE,8.1,-,N/A,,Clear,40,2014-01-23 16:55:00
12:15 PM,14.4,3.7,63,30.38,10.0,NE,8.1,-,N/A,,Clear,40,2014-01-23 17:15:00
12:35 PM,14.4,3.2,61,30.38,10.0,NE,9.2,-,N/A,,Clear,50,2014-01-23 17:35:00
12:55 PM,14.4,3.2,61,30.38,10.0,ENE,6.9,-,N/A,,Clear,60,2014-01-23 17:55:00
1:15 PM,14.4,2.3,59,30.38,10.0,NE,9.2,-,N/A,,Clear,50,2014-01-23 18:15:00
1:35 PM,14.4,2.1,58,30.39,10.0,NE,8.1,-,N/A,,Scattered Clouds,50,2014-01-23 18:35:00
1:55 PM,14.4,1.6,57,30.39,10.0,NNE,12.7,16.1,N/A,,Overcast,30,2014-01-23 18:55:00
2:15 PM,14.4,5.5,68,30.40,2.0,North,4.6,-,N/A,Snow,Light Snow,10,2014-01-23 19:15:00
2:35 PM,12.4,6.6,78,30.40,0.8,North,6.9,-,N/A,Snow,Light Snow,10,2014-01-23 19:35:00
2:55 PM,11.8,6.8,80,30.41,1.5,NNE,4.6,-,N/A,Snow,Light Snow,30,2014-01-23 19:55:00
3:14 PM,11.8,6.6,80,30.41,1.5,NNE,4.6,-,N/A,Snow,Light Snow,30,2014-01-23 20:14:00
3:35 PM,11.8,7.5,83,30.42,0.5,NNE,5.8,-,N/A,Snow,Snow,30,2014-01-23 20:35:00
3:55 PM,11.8,7.7,83,30.42,1.8,NNE,4.6,-,N/A,Snow,Light Snow,20,2014-01-23 20:55:00
4:14 PM,11.8,7.3,82,30.43,1.5,ENE,4.6,-,N/A,Snow,Light Snow,60,2014-01-23 21:14:00
4:35 PM,11.8,7.5,83,30.43,1.8,NE,3.5,-,N/A,Snow,Light Snow,50,2014-01-23 21:35:00
4:55 PM,11.8,7.7,83,30.44,2.5,NE,3.5,-,N/A,Snow,Light Snow,40,2014-01-23 21:55:00
5:14 PM,11.8,7.7,83,30.44,4.0,Calm,Calm,-,N/A,Snow,Light Snow,0,2014-01-23 22:14:00
5:35 PM,11.8,7.7,83,30.44,7.0,Calm,Calm,-,N/A,,Overcast,0,2014-01-23 22:35:00
5:55 PM,11.1,7.3,85,30.44,10.0,Calm,Calm,-,N/A,,Overcast,0,2014-01-23 22:55:00
6:14 PM,11.8,6.8,80,30.44,10.0,Calm,Calm,-,N/A,,Overcast,0,2014-01-23 23:14:00
6:35 PM,13.5,3.7,65,30.44,10.0,NNW,8.1,-,N/A,,Overcast,330,2014-01-23 23:35:00
6:55 PM,14.2,3.6,63,30.45,10.0,NW,9.2,-,N/A,,Overcast,310,2014-01-23 23:55:00
7:14 PM,14.4,3.7,63,30.44,10.0,NW,5.8,-,N/A,,Overcast,310,2014-01-24 00:14:00
7:35 PM,14.4,3.2,61,30.44,10.0,WNW,9.2,-,N/A,,Overcast,300,2014-01-24 00:35:00
7:55 PM,14.4,2.7,60,30.44,10.0,WNW,4.6,-,N/A,,Overcast,300,2014-01-24 00:55:00
8:15 PM,13.3,1.8,60,30.44,10.0,WNW,6.9,-,N/A,,Overcast,300,2014-01-24 01:15:00
8:35 PM,13.3,2.5,62,30.43,10.0,West,5.8,-,N/A,,Overcast,280,2014-01-24 01:35:00
8:55 PM,11.8,0.1,59,30.42,10.0,WNW,5.8,-,N/A,,Overcast,300,2014-01-24 01:55:00
9:15 PM,11.8,0.5,60,30.42,10.0,West,5.8,-,N/A,,Overcast,280,2014-01-24 02:15:00
9:35 PM,11.8,1.2,62,30.42,10.0,West,10.4,17.3,N/A,,Overcast,280,2014-01-24 02:35:00
9:55 PM,11.8,1.9,65,30.42,10.0,West,9.2,-,N/A,,Overcast,270,2014-01-24 02:55:00
10:15 PM,11.8,2.1,65,30.41,10.0,West,6.9,-,N/A,,Overcast,280,2014-01-24 03:15:00
10:35 PM,11.5,2.5,67,30.41,10.0,West,6.9,16.1,N/A,,Overcast,280,2014-01-24 03:35:00
10:55 PM,10.4,1.6,68,30.40,10.0,West,8.1,-,N/A,,Overcast,260,2014-01-24 03:55:00
11:15 PM,10.0,2.3,71,30.40,10.0,West,8.1,-,N/A,,Overcast,270,2014-01-24 04:15:00
11:35 PM,9.3,1.8,71,30.39,10.0,West,11.5,17.3,N/A,,Overcast,280,2014-01-24 04:35:00
11:55 PM,9.3,2.1,73,30.39,10.0,West,6.9,-,N/A,,Overcast,270,2014-01-24 04:55:00